Weather in Tilburg

Netherlands     51°33′18″N   5°04′41″E
temp.,
°C
wind,
m/s
gust,
m/s
humid.,
%
clouds,
%
prec.,
mm/h
press.,
hPa
HPBL,
m
26 june, sun
sun2623:00+15sse2297100 1.3 101247
02:00+15sw3796100 1.5 1012311
05:00+14ssw369799 0.0 1013154
08:00+15ssw479098 0.0 1015365
11:00+18ssw5667100 0.0 1016855
14:00+21ssw4550100 0.0 10161594
17:00+22ssw3546100 0.0 10151918
20:00+19s246771 0.1 1015197
27 june, mon
mon2723:00+16se1176100 0.1 101512
02:00+16se2286100 0.6 101522
05:00+15s2288100 0.0 101533
08:00+16sw3582100 0.0 1016183
11:00+17ssw3679100 0.0 1016435
14:00+17nw4575100 0.4 1018400
17:00+21sw135297 0.2 10181450
20:00+18nw356644 0.2 1019324
28 june, tue
tue2823:00+16nw226998 0.1 102146
02:00+13wsw22755 0.1 102114
05:00+11ssw22805 0.0 102227
08:00+15sw23720 0.0 1022237
11:00+20sw24520 0.0 1021982
14:00+23ssw34400 0.0 10192094
17:00+25s243611 0.0 10182282
20:00+24s225293 0.0 1017122
29 june, wed
wed2923:00+19se225664 0.0 101721
02:00+16s226442 0.0 101623
05:00+15s2266100 0.0 101626
08:00+18s356420 0.0 1016163
11:00+23ssw3445100 0.0 1016780
14:00+26sw35395 0.0 10152116
17:00+28sw353291 0.0 10142471
20:00+26w1149100 0.0 101314
30 june, thu
thu3023:00+19nnw116142 0.0 101412
02:00+18nne22740 0.0 101315
05:00+17e11760 0.0 101211
08:00+20ssw12640 0.0 1012139
11:00+26se23435 0.0 1011766
14:00+30se35345 0.0 10092452
17:00+30ese4441100 0.0 10081404
20:00+19nw5992100 3.9 1008219